TimeAKST,TemperatureF,Dew PointF,Humidity,Sea Level PressureIn,VisibilityMPH,Wind Direction,Wind SpeedMPH,Gust SpeedMPH,PrecipitationIn,Events,Conditions,WindDirDegrees,DateUTC
12:53 AM,39.0,32.0,76,30.00,10.0,East,11.5,19.6,0.00,Rain,Light Rain,100,2013-12-28 09:53:00
1:53 AM,39.9,32.0,73,29.98,10.0,East,10.4,23.0,0.01,Rain,Light Rain,100,2013-12-28 10:53:00
2:53 AM,39.9,32.0,73,29.98,10.0,ESE,9.2,19.6,0.01,Rain,Light Rain,110,2013-12-28 11:53:00
3:53 AM,42.1,30.9,65,29.96,10.0,East,17.3,28.8,0.00,,Overcast,100,2013-12-28 12:53:00
4:53 AM,42.1,30.9,65,29.94,10.0,ESE,15.0,25.3,0.00,Rain,Light Rain,110,2013-12-28 13:53:00
5:53 AM,41.0,30.9,67,29.94,10.0,East,15.0,27.6,0.00,Rain,Light Rain,100,2013-12-28 14:53:00
6:53 AM,42.1,30.9,65,29.93,10.0,ESE,11.5,20.7,0.00,,Overcast,110,2013-12-28 15:53:00
7:53 AM,42.1,30.9,65,29.91,10.0,ESE,11.5,16.1,N/A,,Overcast,110,2013-12-28 16:53:00
8:53 AM,43.0,30.9,62,29.91,10.0,ESE,13.8,20.7,N/A,,Overcast,110,2013-12-28 17:53:00
9:53 AM,42.1,32.0,67,29.91,10.0,ESE,10.4,-,N/A,,Overcast,120,2013-12-28 18:53:00
10:53 AM,43.0,32.0,65,29.91,10.0,SE,6.9,-,N/A,,Overcast,130,2013-12-28 19:53:00
11:53 AM,41.0,32.0,70,29.90,10.0,South,4.6,-,N/A,,Mostly Cloudy,180,2013-12-28 20:53:00
12:53 PM,37.0,30.9,79,29.88,10.0,Calm,Calm,-,N/A,,Overcast,0,2013-12-28 21:53:00
1:53 PM,35.1,30.0,82,29.87,10.0,WSW,4.6,-,N/A,,Overcast,250,2013-12-28 22:53:00
2:53 PM,33.1,28.0,82,29.86,10.0,Calm,Calm,-,N/A,,Overcast,0,2013-12-28 23:53:00
3:53 PM,32.0,27.0,82,29.86,10.0,Calm,Calm,-,N/A,,Overcast,0,2013-12-29 00:53:00
4:53 PM,32.0,28.9,88,29.87,10.0,SE,3.5,-,N/A,,Overcast,140,2013-12-29 01:53:00
5:53 PM,32.0,28.9,88,29.85,10.0,NW,3.5,-,N/A,,Mostly Cloudy,310,2013-12-29 02:53:00
6:53 PM,28.9,26.1,89,29.85,10.0,Calm,Calm,-,N/A,,Mostly Cloudy,0,2013-12-29 03:53:00
7:53 PM,28.0,25.0,88,29.85,10.0,Calm,Calm,-,N/A,,Mostly Cloudy,0,2013-12-29 04:53:00
8:53 PM,27.0,24.1,89,29.86,10.0,Calm,Calm,-,N/A,,Scattered Clouds,0,2013-12-29 05:53:00
9:53 PM,25.0,23.0,92,29.85,10.0,Calm,Calm,-,N/A,,Partly Cloudy,0,2013-12-29 06:53:00
10:53 PM,21.9,19.0,89,29.86,10.0,Calm,Calm,-,N/A,,Scattered Clouds,0,2013-12-29 07:53:00
11:00 PM,21.2,19.4,93,29.85,10.0,Calm,Calm,-,N/A,,Scattered Clouds,0,2013-12-29 08:00:00
11:53 PM,24.1,21.0,88,29.86,10.0,Calm,Calm,-,N/A,,Scattered Clouds,0,2013-12-29 08:53:00